Theta_e
331 333 333 334 334 335 335 334 335 340 337 339 340 339 338 337 335 334 333 332 330 329 329 329 328 328 325 326 324 325 323 320 319 318 317 315 315 316 316 315 315 315 315 315
329 331 335 334 334 336 336 336 339 338 336 338 338 338 334 335 333 332 333 333 328 329 329 329 329 327 326 326 325 322 325 322 320 318 317 315 316 316 316 317 317 315 315 314
327 331 334 334 335 337 336 335 340 338 338 337 338 339 336 333 332 332 331 333 331 330 329 329 329 330 329 324 321 327 326 323 321 317 317 317 316 317 316 316 316 316 314 315
328 332 333 334 334 335 334 336 335 339 340 339 337 336 337 333 332 331 330 331 331 330 329 328 329 330 330 326 327 328 327 324 321 316 317 317 316 316 316 317 316 315 316 315
331 332 333 334 335 333 336 335 336 337 339 339 338 337 337 332 332 332 331 331 330 329 329 329 329 328 329 330 329 328 327 324 320 315 313 315 316 315 316 317 317 316 316 316
332 331 332 335 332 333 334 335 336 336 336 337 337 334 337 333 331 329 327 326 327 328 329 329 328 327 327 328 327 326 326 324 320 315 317 317 316 316 317 316 317 316 316 316
335 334 329 331 335 333 334 336 333 334 337 336 334 333 335 330 329 328 326 325 325 326 326 326 327 326 325 325 325 324 323 323 321 318 317 317 316 315 316 316 316 315 315 314
335 336 331 328 330 333 334 333 330 331 330 332 333 334 330 327 328 327 326 324 322 322 324 324 325 325 324 324 324 324 322 322 321 318 317 316 316 315 316 316 315 315 314 313
336 337 330 328 328 330 333 333 331 331 333 333 335 331 326 325 324 323 322 322 322 322 323 323 323 322 322 323 322 323 322 321 320 318 317 317 316 316 315 313 313 315 314 313
334 335 330 330 327 328 330 329 331 333 332 331 335 332 332 327 324 324 323 323 322 322 322 322 321 320 319 319 319 319 320 320 320 318 315 314 316 315 312 315 316 314 312 311
329 330 331 330 330 330 328 330 331 331 331 330 327 333 326 324 324 324 322 322 322 322 321 321 320 319 318 318 319 320 319 318 318 317 314 313 315 316 315 314 315 315 312 312
332 331 328 328 327 326 327 328 328 330 332 328 326 330 324 324 323 323 323 322 321 321 319 316 315 314 313 314 314 315 318 319 317 316 314 314 313 313 314 312 312 314 312 312
332 332 330 330 328 326 326 325 326 327 327 328 326 332 324 323 323 322 322 321 318 315 312 310 310 311 311 312 312 312 313 316 317 318 316 315 313 312 313 313 314 315 315 315
331 334 332 332 331 327 327 325 323 325 328 326 326 326 326 324 323 322 320 317 313 311 311 311 311 311 312 312 312 312 312 313 315 317 317 315 313 312 312 313 313 313 315 314
331 331 329 327 325 326 326 325 325 326 325 326 326 326 325 323 322 321 315 312 311 312 312 311 311 311 311 312 312 311 312 312 314 315 316 314 314 312 313 312 312 314 315 314
329 330 328 328 325 325 326 325 326 325 325 326 326 325 322 320 320 315 312 312 312 312 312 311 311 310 310 311 311 312 312 313 313 313 314 315 314 313 313 315 312 314 315 314
331 330 330 330 326 327 330 328 327 326 326 326 327 326 321 320 315 313 313 312 312 312 312 312 311 310 310 310 310 311 311 313 312 313 313 315 314 313 313 315 315 314 315 315
332 332 331 332 330 332 332 327 326 326 325 324 323 321 318 314 312 312 311 312 312 312 312 312 311 311 311 311 310 310 311 311 313 312 312 314 315 312 311 314 314 315 315 315
330 332 333 334 332 330 330 328 327 327 326 323 321 319 315 312 312 313 312 312 312 313 312 312 312 311 311 311 311 311 311 311 311 312 312 313 314 312 312 314 316 316 316 315
332 333 335 333 331 329 333 327 325 323 326 321 318 315 313 312 314 314 313 313 313 313 312 313 313 313 313 312 312 312 311 311 311 311 312 312 314 313 313 312 314 313 317 316
335 334 335 330 330 329 325 322 322 326 326 317 314 312 313 314 314 313 313 313 313 313 313 313 312 312 311 311 311 311 311 311 310 310 311 312 312 312 312 312 312 312 313 316
334 332 331 329 328 328 321 322 324 320 315 313 312 313 313 313 313 313 313 313 312 311 311 310 309 309 309 310 310 310 309 309 309 310 311 311 312 313 313 312 312 313 312 314
334 332 333 330 330 323 320 319 315 314 313 313 313 313 313 313 314 314 313 310 309 309 309 308 308 307 307 308 308 307 307 306 306 307 309 310 311 311 311 313 313 312 312 314
329 325 328 328 324 320 318 316 315 313 313 313 313 313 314 314 313 312 308 309 309 308 307 307 306 306 306 305 305 305 305 305 305 306 305 308 310 309 310 311 311 311 311 312
330 325 328 326 322 319 317 317 315 314 314 314 314 314 314 313 310 308 308 309 308 306 307 306 305 305 304 304 304 304 304 304 304 305 305 307 307 308 309 310 310 308 307 308
327 329 326 324 322 320 319 317 315 314 314 314 313 313 312 310 308 308 308 307 305 306 307 305 304 304 304 304 303 303 304 303 304 305 305 305 305 307 308 309 310 310 308 307
Wind_Speed
6 11 3 8 5 6 6 6 3 5 4 1 4 5 3 4 5 7 10 8 6 7 8 12 14 15 16 13 9 15 12 13 10 8 13 14 9 8 7 8 9 9 8 9
8 5 6 2 0 4 4 4 4 3 4 5 6 5 4 6 5 3 6 8 9 7 6 9 13 18 18 13 17 13 14 12 9 9 12 10 8 7 9 7 10 9 9 8
11 8 4 4 4 6 6 9 4 8 8 3 5 7 6 8 5 4 2 4 11 8 7 7 9 14 15 12 12 11 11 12 12 13 9 10 10 10 9 10 10 9 8 8
5 3 6 5 3 6 13 4 6 6 10 3 6 3 5 2 1 0 1 2 8 9 7 5 6 9 13 14 12 11 12 12 12 11 9 10 8 9 10 11 12 11 8 8
4 2 6 10 4 5 5 2 4 9 11 5 8 7 8 1 3 5 3 2 4 7 8 7 7 7 9 11 12 10 12 13 11 10 12 9 9 10 12 12 13 11 7 8
3 3 4 4 5 1 7 4 4 5 5 11 7 5 8 2 3 3 5 7 7 7 6 8 8 8 7 9 9 9 11 11 10 9 9 8 9 12 12 11 9 9 9 8
6 1 5 1 5 5 5 7 8 7 8 1 4 6 9 3 1 5 8 10 9 8 6 8 9 7 9 8 8 10 10 11 10 9 8 8 7 12 11 10 8 8 9 9
9 9 4 1 3 6 7 6 8 13 12 6 5 1 4 5 4 5 7 9 10 9 9 9 9 10 12 13 11 13 11 11 11 9 8 8 8 8 9 8 5 6 8 7
4 4 4 4 4 4 4 7 6 10 10 9 5 6 6 7 6 6 6 8 10 11 11 9 8 9 10 11 13 11 11 11 13 11 9 9 9 9 8 7 7 6 7 8
3 6 1 4 3 4 6 4 7 6 8 7 6 4 6 1 3 5 7 9 10 10 10 11 11 13 14 14 14 12 12 14 13 13 13 10 12 11 9 9 9 8 9 9
1 4 6 6 4 7 2 3 2 4 5 7 6 6 4 2 4 6 7 9 10 13 13 14 15 15 16 15 16 17 15 13 13 15 17 14 12 13 13 13 13 11 11 9
3 3 2 5 4 4 5 4 4 6 3 1 6 4 5 2 3 6 11 12 12 14 14 16 17 17 19 19 19 19 19 20 18 15 16 20 17 15 15 16 16 13 13 11
3 2 4 7 7 5 1 3 2 3 4 1 8 6 4 2 3 7 8 11 13 15 17 17 17 18 18 19 20 20 20 20 18 15 16 19 21 16 16 18 14 15 14 12
2 0 5 7 6 3 2 2 3 4 6 5 2 3 6 2 6 9 10 13 13 13 15 16 18 18 18 20 22 22 22 21 21 18 15 19 19 16 17 18 14 15 13 13
1 2 3 6 4 4 2 2 3 3 4 5 7 4 3 4 8 9 11 12 12 14 15 17 20 21 19 20 22 23 24 24 22 19 18 17 17 16 18 13 10 12 11 12
1 4 5 4 3 1 0 2 1 0 1 2 4 2 4 5 5 9 9 11 12 13 15 17 20 20 20 21 22 23 24 24 25 27 18 15 17 20 16 13 11 13 13 11
3 6 4 2 2 2 8 8 5 2 4 6 8 5 4 4 7 8 9 11 13 14 16 17 19 20 20 21 21 22 23 22 23 26 24 19 19 18 19 12 11 13 11 11
6 6 2 2 4 5 6 3 3 7 3 3 1 2 3 5 7 6 8 11 13 15 17 17 19 20 20 21 20 22 23 23 23 24 28 19 15 12 16 12 12 13 13 14
6 5 2 3 7 5 8 6 5 5 5 5 3 2 3 4 8 6 7 12 15 18 19 19 20 21 22 22 21 22 22 21 22 22 23 25 12 9 15 13 11 12 13 13
5 6 5 3 8 8 7 5 4 2 8 7 3 3 3 6 6 8 15 17 19 20 21 22 22 23 22 22 20 21 22 20 20 21 21 20 16 13 16 18 14 13 11 12
6 5 9 6 6 2 4 5 5 5 5 6 2 2 2 6 9 14 17 19 20 20 20 19 20 21 22 23 19 18 20 19 21 20 19 18 17 15 13 18 23 19 14 15
4 4 4 2 4 5 8 7 5 6 4 4 3 1 4 9 13 16 19 19 19 19 19 19 20 20 19 18 18 19 19 21 21 20 18 16 16 14 15 13 11 21 16 17
3 3 4 3 5 6 6 3 6 4 5 4 1 4 8 12 15 16 17 18 18 17 17 18 19 18 16 17 17 18 18 19 20 20 19 17 14 14 15 12 9 10 16 14
3 3 2 3 7 8 8 8 6 4 3 0 3 7 10 12 13 15 16 16 15 16 17 17 16 16 17 18 19 19 20 20 20 20 20 18 14 14 13 13 10 10 9 13
3 7 3 2 7 8 8 7 5 4 3 5 5 7 7 10 12 13 13 13 14 15 14 14 16 17 17 18 18 17 18 18 18 18 18 17 14 14 13 12 12 10 12 15
7 2 4 3 8 6 5 10 5 3 2 3 5 6 9 9 10 10 10 12 12 13 13 15 16 16 16 15 16 18 19 21 18 17 17 16 15 13 12 12 11 10 8 9
Wind_Direction
209 265 0 21 339 325 296 296 18 113 142 170 95 143 152 201 230 253 243 217 213 240 243 233 233 238 247 260 263 269 267 288 312 324 343 342 328 322 331 338 321 313 301 308
226 242 73 69 261 244 253 278 131 133 182 260 179 129 165 167 176 307 297 224 202 224 249 243 237 244 250 284 257 254 250 272 295 312 328 327 316 312 316 321 324 314 305 305
281 41 142 241 177 232 220 272 159 295 171 194 213 181 164 183 257 280 287 223 219 248 266 280 259 244 245 242 245 253 254 273 294 301 320 323 320 316 312 313 314 304 305 298
308 79 239 249 252 285 293 352 272 195 204 261 203 329 153 132 77 13 17 227 233 241 254 268 282 265 256 246 256 257 256 268 280 306 307 304 309 305 306 309 303 302 299 294
63 228 237 254 4 302 14 328 232 217 236 223 166 263 104 123 150 63 60 292 272 258 258 270 292 292 273 256 256 267 262 269 274 297 313 308 299 309 313 309 308 307 305 302
21 86 18 42 25 85 125 134 182 220 245 245 110 258 107 98 37 66 65 36 11 333 297 285 293 288 294 280 275 269 260 257 256 290 290 288 286 305 309 316 318 315 304 301
176 107 97 137 148 150 234 224 264 232 204 14 120 235 64 57 91 28 22 16 15 2 348 315 297 294 296 286 288 282 269 251 242 268 281 278 276 308 325 324 325 337 324 314
233 188 190 87 326 329 236 317 293 301 305 342 143 281 90 43 72 37 31 20 11 2 352 343 339 344 337 332 311 291 272 264 248 259 276 277 274 300 322 311 322 346 354 346
283 180 140 64 47 308 136 248 7 288 241 263 100 104 151 107 57 47 41 27 21 14 14 10 7 0 352 336 325 303 276 268 258 259 278 285 272 281 290 302 307 311 340 342
67 272 196 105 223 97 331 25 264 218 283 287 135 208 125 40 18 29 26 17 13 10 8 6 1 359 358 358 341 322 301 286 268 259 269 286 276 273 283 282 287 282 313 321
349 280 112 210 19 348 263 235 292 303 301 301 308 101 52 30 18 6 8 356 347 344 345 345 343 342 342 338 325 320 312 304 285 273 280 278 281 268 279 273 279 291 293 303
49 325 273 37 88 61 41 20 328 299 106 336 308 81 106 67 41 352 349 354 355 347 346 340 339 342 344 342 333 321 318 309 301 289 271 268 268 272 274 278 274 286 282 289
153 189 211 180 175 183 357 34 348 297 276 260 308 90 128 124 335 359 352 357 346 342 348 350 349 349 349 347 343 339 331 318 306 293 290 285 263 255 274 275 278 276 279 278
60 109 302 341 33 48 161 24 12 302 285 6 0 101 154 337 357 344 352 347 346 349 349 345 344 341 340 341 341 341 338 331 318 306 291 288 260 251 268 273 279 275 267 270
352 127 106 79 86 75 82 26 340 331 357 307 21 314 40 337 349 336 341 342 341 341 341 343 343 338 336 337 337 336 335 335 330 314 291 286 262 247 279 266 260 269 264 262
140 140 146 123 126 123 235 227 190 57 3 262 296 302 23 343 314 340 334 336 334 336 338 339 343 342 339 338 336 335 337 339 336 338 313 282 272 250 266 273 266 260 256 263
164 147 214 136 196 268 257 214 226 275 268 312 307 55 316 319 333 326 322 321 330 331 329 332 336 341 339 339 338 337 338 336 339 334 335 306 276 289 252 269 253 250 269 256
153 178 208 50 195 247 65 160 268 284 307 253 228 289 349 329 315 313 325 333 331 330 326 327 329 332 333 333 333 334 336 336 334 338 339 329 298 258 242 279 253 251 254 256
190 214 196 227 222 278 200 223 207 232 299 191 251 249 297 309 305 197 344 332 323 320 323 321 321 321 322 321 320 324 330 335 334 337 338 338 311 255 255 284 273 255 241 247
184 245 262 244 285 290 76 128 180 263 264 136 203 268 296 317 300 12 335 328 326 325 320 316 316 316 314 318 314 320 323 330 334 333 339 339 339 269 256 264 285 257 246 248
207 247 252 266 268 120 101 153 188 244 70 147 215 214 288 310 323 317 325 328 327 326 324 322 321 323 325 320 320 326 325 331 333 329 330 337 337 326 324 268 257 259 260 249
264 270 247 270 271 240 147 155 253 81 119 152 165 267 310 316 321 325 328 330 332 332 333 331 329 329 330 331 336 333 332 330 328 327 325 330 335 334 326 308 288 258 252 256
246 313 347 332 29 113 160 95 129 135 149 157 219 340 322 317 325 330 331 332 334 335 335 335 334 333 335 334 338 335 332 332 331 329 326 324 327 334 338 335 306 262 278 269
189 198 257 215 147 155 145 143 148 163 161 206 318 320 322 326 331 331 332 334 339 339 337 338 339 342 339 337 335 331 328 328 327 323 322 324 326 332 333 338 334 336 304 270
33 168 175 154 170 166 186 184 185 201 247 289 313 325 332 332 332 332 335 340 340 340 345 344 340 339 340 341 340 339 339 337 334 332 325 320 324 324 328 325 327 335 352 305
191 155 228 11 152 217 164 194 199 227 291 305 320 323 327 331 335 337 342 342 344 347 345 343 343 342 341 342 345 347 347 346 336 336 330 325 323 318 313 315 317 323 332 354